TimeMST,TemperatureF,Dew PointF,Humidity,Sea Level PressureIn,VisibilityMPH,Wind Direction,Wind SpeedMPH,Gust SpeedMPH,PrecipitationIn,Events,Conditions,WindDirDegrees,DateUTC
12:15 AM,15.8,8.6,73,30.59,1.5,Calm,Calm,-,N/A,,Clear,0,2013-12-25 07:15:00
12:35 AM,15.8,6.8,68,30.60,1.0,Calm,Calm,-,N/A,,Clear,0,2013-12-25 07:35:00
12:55 AM,15.8,8.6,73,30.59,0.2,Calm,Calm,-,N/A,,Overcast,0,2013-12-25 07:55:00
1:15 AM,15.8,6.8,68,30.59,0.5,SE,3.5,-,N/A,,Mostly Cloudy,130,2013-12-25 08:15:00
1:35 AM,14.0,6.8,73,30.59,0.5,Calm,Calm,-,N/A,,Mostly Cloudy,0,2013-12-25 08:35:00
1:55 AM,12.2,5.0,73,30.60,0.5,Calm,Calm,-,N/A,,Mostly Cloudy,0,2013-12-25 08:55:00
2:15 AM,14.0,6.8,73,30.60,0.2,Calm,Calm,-,N/A,,Overcast,0,2013-12-25 09:15:00
2:35 AM,12.2,5.0,73,30.60,0.2,Calm,Calm,-,N/A,,Overcast,0,2013-12-25 09:35:00
2:55 AM,12.2,6.8,79,30.60,0.5,Calm,Calm,-,N/A,,Mostly Cloudy,0,2013-12-25 09:55:00
3:15 AM,10.4,1.4,67,30.60,0.2,Calm,Calm,-,N/A,,Unknown,0,2013-12-25 10:15:00
3:35 AM,10.4,3.2,73,30.60,0.2,NNE,3.5,-,N/A,,Overcast,20,2013-12-25 10:35:00
3:55 AM,10.4,3.2,73,30.60,0.2,NE,4.6,-,N/A,,Overcast,40,2013-12-25 10:55:00
4:15 AM,10.4,3.2,73,30.60,0.2,Calm,Calm,-,N/A,,Overcast,0,2013-12-25 11:15:00
4:35 AM,12.2,3.2,67,30.60,0.2,Calm,Calm,-,N/A,,Overcast,0,2013-12-25 11:35:00
4:55 AM,10.4,3.2,73,30.60,0.2,ENE,3.5,-,N/A,,Overcast,70,2013-12-25 11:55:00
5:15 AM,12.2,3.2,67,30.60,0.2,East,3.5,-,N/A,,Overcast,80,2013-12-25 12:15:00
5:35 AM,12.2,5.0,73,30.60,0.2,East,3.5,-,N/A,,Overcast,90,2013-12-25 12:35:00
5:55 AM,12.2,5.0,73,30.60,0.2,Calm,Calm,-,N/A,,Overcast,0,2013-12-25 12:55:00
6:15 AM,12.2,5.0,73,30.60,0.2,Calm,Calm,-,N/A,,Overcast,0,2013-12-25 13:15:00
6:35 AM,14.0,6.8,73,30.60,0.2,Calm,Calm,-,N/A,,Overcast,0,2013-12-25 13:35:00
6:55 AM,12.2,6.8,79,30.60,0.2,Calm,Calm,-,N/A,,Overcast,0,2013-12-25 13:55:00
7:15 AM,12.2,5.0,73,30.60,0.2,Calm,Calm,-,N/A,,Overcast,0,2013-12-25 14:15:00
7:35 AM,14.0,6.8,73,30.60,0.5,Calm,Calm,-,N/A,,Overcast,0,2013-12-25 14:35:00
7:55 AM,14.0,6.8,73,30.60,0.2,Calm,Calm,-,N/A,,Overcast,0,2013-12-25 14:55:00
8:15 AM,15.8,8.6,73,30.61,0.2,Calm,Calm,-,N/A,,Overcast,0,2013-12-25 15:15:00
8:35 AM,15.8,8.6,73,30.62,0.2,Calm,Calm,-,N/A,,Overcast,0,2013-12-25 15:35:00
8:55 AM,15.8,8.6,73,30.62,0.2,Calm,Calm,-,N/A,,Overcast,0,2013-12-25 15:55:00
9:15 AM,15.8,8.6,73,30.63,0.2,Calm,Calm,-,N/A,,Overcast,0,2013-12-25 16:15:00
9:35 AM,15.8,8.6,73,30.63,0.2,SE,3.5,-,N/A,,Overcast,130,2013-12-25 16:35:00
9:55 AM,17.6,10.4,73,30.63,0.2,SE,4.6,-,N/A,,Overcast,140,2013-12-25 16:55:00
10:15 AM,17.6,10.4,73,30.64,0.2,SE,3.5,-,N/A,,Overcast,130,2013-12-25 17:15:00
10:35 AM,17.6,10.4,73,30.64,3.0,ESE,3.5,-,N/A,,Overcast,120,2013-12-25 17:35:00
10:55 AM,19.4,12.2,74,30.64,4.0,ENE,4.6,-,N/A,,Mostly Cloudy,60,2013-12-25 17:55:00
11:15 AM,19.4,12.2,74,30.64,4.0,Calm,Calm,-,N/A,,Partly Cloudy,0,2013-12-25 18:15:00
11:35 AM,21.2,15.8,80,30.64,3.0,Calm,Calm,-,N/A,,Partly Cloudy,0,2013-12-25 18:35:00
11:55 AM,21.2,14.0,74,30.62,2.5,Calm,Calm,-,N/A,,Clear,0,2013-12-25 18:55:00
12:15 PM,23.0,17.6,80,30.62,3.0,Calm,Calm,-,N/A,,Clear,0,2013-12-25 19:15:00
12:35 PM,23.0,17.6,80,30.61,5.0,Calm,Calm,-,N/A,,Clear,0,2013-12-25 19:35:00
12:55 PM,24.8,17.6,74,30.60,7.0,Calm,Calm,-,N/A,,Clear,0,2013-12-25 19:55:00
1:15 PM,24.8,19.4,80,30.59,8.0,Calm,Calm,-,N/A,,Clear,0,2013-12-25 20:15:00
1:35 PM,24.8,19.4,80,30.58,5.0,Calm,Calm,-,N/A,,Clear,0,2013-12-25 20:35:00
1:55 PM,24.8,19.4,80,30.58,2.5,Calm,Calm,-,N/A,,Clear,0,2013-12-25 20:55:00
2:15 PM,24.8,19.4,80,30.57,4.0,Calm,Calm,-,N/A,,Clear,0,2013-12-25 21:15:00
2:35 PM,24.8,17.6,74,30.56,9.0,Calm,Calm,-,N/A,,Clear,0,2013-12-25 21:35:00
2:55 PM,24.8,17.6,74,30.56,10.0,Calm,Calm,-,N/A,,Clear,0,2013-12-25 21:55:00
3:15 PM,24.8,17.6,74,30.56,10.0,Calm,Calm,-,N/A,,Clear,0,2013-12-25 22:15:00
3:35 PM,24.8,17.6,74,30.55,10.0,Calm,Calm,-,N/A,,Clear,0,2013-12-25 22:35:00
3:55 PM,24.8,17.6,74,30.55,10.0,Calm,Calm,-,N/A,,Clear,0,2013-12-25 22:55:00
4:15 PM,23.0,17.6,80,30.54,10.0,Calm,Calm,-,N/A,,Clear,0,2013-12-25 23:15:00
4:35 PM,23.0,17.6,80,30.55,10.0,Calm,Calm,-,N/A,,Clear,0,2013-12-25 23:35:00
4:55 PM,23.0,17.6,80,30.56,9.0,WNW,8.1,-,N/A,,Clear,300,2013-12-25 23:55:00
5:15 PM,23.0,15.8,74,30.55,7.0,West,4.6,-,N/A,,Clear,270,2013-12-26 00:15:00
5:35 PM,23.0,15.8,74,30.54,7.0,SW,3.5,-,N/A,,Clear,230,2013-12-26 00:35:00
5:55 PM,21.2,15.8,80,30.54,8.0,West,5.8,-,N/A,,Clear,260,2013-12-26 00:55:00
6:15 PM,21.2,14.0,74,30.54,10.0,West,5.8,-,N/A,,Clear,280,2013-12-26 01:15:00
6:35 PM,21.2,14.0,74,30.53,10.0,WSW,3.5,-,N/A,,Clear,240,2013-12-26 01:35:00
6:55 PM,19.4,12.2,74,30.54,9.0,West,3.5,-,N/A,,Clear,280,2013-12-26 01:55:00
7:15 PM,19.4,12.2,74,30.55,10.0,West,3.5,-,N/A,,Clear,270,2013-12-26 02:15:00
7:35 PM,19.4,12.2,74,30.55,9.0,West,3.5,-,N/A,,Clear,270,2013-12-26 02:35:00
7:55 PM,19.4,12.2,74,30.55,9.0,West,3.5,-,N/A,,Clear,270,2013-12-26 02:55:00
8:15 PM,17.6,10.4,73,30.56,10.0,WNW,5.8,-,N/A,,Clear,290,2013-12-26 03:15:00
8:35 PM,17.6,10.4,73,30.56,10.0,West,5.8,-,N/A,,Clear,280,2013-12-26 03:35:00
8:55 PM,17.6,10.4,73,30.56,10.0,West,3.5,-,N/A,,Clear,280,2013-12-26 03:55:00
9:15 PM,19.4,10.4,68,30.55,8.0,SW,3.5,-,N/A,,Clear,220,2013-12-26 04:15:00
9:35 PM,19.4,10.4,68,30.55,8.0,Calm,Calm,-,N/A,,Clear,0,2013-12-26 04:35:00
9:55 PM,17.6,10.4,73,30.55,8.0,Calm,Calm,-,N/A,,Clear,0,2013-12-26 04:55:00
10:15 PM,17.6,10.4,73,30.56,7.0,Calm,Calm,-,N/A,,Clear,0,2013-12-26 05:15:00
10:35 PM,17.6,10.4,73,30.55,7.0,Calm,Calm,-,N/A,,Clear,0,2013-12-26 05:35:00
10:55 PM,15.8,8.6,73,30.55,5.0,SSE,3.5,-,N/A,,Clear,150,2013-12-26 05:55:00
11:15 PM,15.8,8.6,73,30.55,5.0,Calm,Calm,-,N/A,,Clear,0,2013-12-26 06:15:00
11:35 PM,12.2,3.2,67,30.55,3.0,East,4.6,-,N/A,,Clear,90,2013-12-26 06:35:00
11:55 PM,10.4,3.2,73,30.56,7.0,East,5.8,-,N/A,,Clear,80,2013-12-26 06:55:00